Location: Austin
(30.3000°N, 97.7500°W)
Time: 01:12:08
(UTC-05:00)

Cosmos 2237 Rocket - Pass Details

Date: 15 May 2024
Orbit: 833 x 851 km, 71.0° (Epoch: 19 May)

Event Time Altitude Azimuth Distance (km) Brightness Sun altitude
Rises 20:49:23 0° 172° (S) 3,385 5.0 -6.9°
Reaches altitude 10° 20:52:06 10° 162° (SSE) 2,457 4.2 -7.4°
Maximum altitude 20:56:56 30° 103° (ESE) 1,476 3.0 -8.3°
Drops below altitude 10° 21:01:48 10° 43° (NE) 2,476 4.5 -9.2°
Sets 21:04:31 0° 33° (NNE) 3,416 5.3 -9.8°
